Location: Quaker Farms
(41.4276°N, 73.1557°W)
Time: 19:33:19
(UTC+00:00)

S-56A Canister/Altair - Pass Details

Date: 15 June 2021
Orbit: 631 x 2501 km, 38.9° (Epoch: 30 July)

Event Time Altitude Azimuth Distance (km) Brightness Sun altitude
Rises 15:06:53 0° 278° (W) 3,536 10.7 61.4°
Reaches altitude 10° 15:09:09 10° 273° (W) 2,773 10.3 61.7°
Maximum altitude 15:15:39 50° 199° (SSW) 1,613 10.1 62.8°
Drops below altitude 10° 15:25:27 10° 128° (SE) 4,114 11.8 64.2°
Sets 15:29:33 0° 124° (SE) 5,396 12.2 64.8°
